Location: Aufkirchen
(47.9603°N, 11.3653°E)
Time: 17:31:28
(UTC+01:00)

Transit 2A - Pass Details

Date: 27 November 2020
Orbit: 599 x 960 km, 66.7° (Epoch: 26 January)

Event Time Altitude Azimuth Distance (km) Brightness Sun altitude
Rises 01:06:38 0° 327° (NNW) 3,399 - -60.2°
Reaches altitude 10° 01:09:38 10° 340° (NNW) 2,395 - -60.0°
Maximum altitude 01:14:08 26° 35° (NE) 1,479 - -59.6°
Drops below altitude 10° 01:18:17 10° 92° (E) 2,184 - -59.2°
Sets 01:20:52 0° 105° (ESE) 3,040 - -58.9°
